GW5952 Weather Reports


Display with metric or nautical units.
time (UTC)temp
F
wind
direction
speed
MPH
gust
MPH
rain 1hr
in
rain 24hr
in
rain mn
in
humidity
%
barometer
mb
20260906102718 75 326 3.0 4.0 0.00 0.00 0.00 95 1012.8
20260906102217 75 358 1.0 2.0 0.00 0.00 0.00 95 1012.8
20260906101712 75 336 2.0 2.0 0.00 0.00 0.00 95 1012.9
20260906101207 76 328 1.0 1.0 0.00 0.00 0.00 95 1012.7
20260906100702 76 21 4.0 4.0 0.00 0.00 0.00 95 1012.6
20260906100202 75 19 1.0 2.0 0.00 0.00 0.00 95 1012.7
20260906095657 76 5 1.0 1.0 0.00 0.00 0.00 94 1012.6
20260906095152 76 335 1.0 2.0 0.00 0.00 0.00 94 1012.5
20260906094651 76 335 1.0 1.0 0.00 0.00 0.00 93 1012.7
20260906094147 76 340 1.0 1.0 0.00 0.00 0.00 93 1012.6
20260906093643 76 346 0.0 1.0 0.00 0.00 0.00 93 1012.5
20260906093143 76 298 0.0 1.0 0.00 0.00 0.00 93 1012.6
20260906092638 76 352 0.0 1.0 0.00 0.00 0.00 93 1012.4
20260906092133 76 334 1.0 2.0 0.00 0.00 0.00 93 1012.7
20260906091629 76 318 0.0 1.0 0.00 0.00 0.00 93 1012.4
20260906091125 76 342 0.0 1.0 0.00 0.00 0.00 92 1012.4
20260906090620 76 351 1.0 1.0 0.00 0.00 0.00 92 1012.5
20260906090115 75 6 0.0 1.0 0.00 0.00 0.00 92 1012.5
20260906085614 75 7 1.0 1.0 0.00 0.00 0.00 92 1012.5
20260906085114 75 7 0.0 1.0 0.00 0.00 0.00 92 1012.4
20260906084609 76 7 0.0 0.0 0.00 0.00 0.00 92 1012.3
20260906084107 75 7 0.0 0.0 0.00 0.00 0.00 92 1012.5
20260906083603 75 7 0.0 0.0 0.00 0.00 0.00 92 1012.3
20260906083103 76 7 0.0 0.0 0.00 0.00 0.00 92 1012.5
20260906082559 75 7 0.0 1.0 0.00 0.00 0.00 92 1012.3
20260906082054 75 8 1.0 1.0 0.00 0.00 0.00 92 1012.3
20260906081550 76 8 0.0 0.0 0.00 0.00 0.00 91 1012.4
20260906081045 76 8 0.0 0.0 0.00 0.00 0.00 91 1012.3
20260906080542 76 8 1.0 1.0 0.00 0.00 0.00 91 1012.3
20260906080037 76 8 0.0 0.0 0.00 0.00 0.00 91 1012.2
20260906075537 76 8 0.0 0.0 0.00 0.00 0.00 91 1012.1
20260906075031 76 10 0.0 0.0 0.00 0.00 0.00 91 1012.2
20260906074526 76 10 0.0 0.0 0.00 0.00 0.00 91 1012.2
20260906074025 76 10 0.0 0.0 0.00 0.00 0.00 90 1012.4
20260906073520 76 10 1.0 1.0 0.00 0.00 0.00 91 1012.2
20260906073016 76 12 0.0 0.0 0.00 0.00 0.00 90 1012.2
20260906072511 76 12 0.0 0.0 0.00 0.00 0.00 91 1012.0
20260906072007 76 12 0.0 0.0 0.00 0.00 0.00 91 1012.1
20260906071503 76 12 0.0 0.0 0.00 0.00 0.00 91 1012.2
20260906070958 76 12 0.0 0.0 0.00 0.00 0.00 91 1012.1
20260906070455 76 12 0.0 0.0 0.00 0.00 0.00 91 1012.2
20260906065950 76 12 0.0 0.0 0.00 0.00 0.00 91 1012.3
20260906065449 76 12 0.0 0.0 0.00 0.00 0.00 91 1012.4
20260906064945 77 12 0.0 0.0 0.00 0.00 0.00 91 1012.4
20260906064442 77 12 0.0 0.0 0.00 0.00 0.00 90 1012.4
20260906063941 77 12 0.0 0.0 0.00 0.00 0.00 90 1012.4
20260906063437 77 12 0.0 0.0 0.00 0.00 0.00 90 1012.5
20260906062932 77 12 0.0 0.0 0.00 0.00 0.00 89 1012.5
20260906062427 77 12 0.0 0.0 0.00 0.00 0.00 88 1012.6
20260906061922 77 11 1.0 1.0 0.00 0.00 0.00 88 1012.6
20260906061418 78 53 0.0 0.0 0.00 0.00 0.00 87 1012.7
20260906060912 78 52 0.0 1.0 0.00 0.00 0.00 86 1012.7
20260906060410 78 53 0.0 0.0 0.00 0.00 0.00 85 1012.9
20260906055906 78 7 1.0 1.0 0.00 0.00 0.00 85 1012.8
20260906055401 78 289 0.0 1.0 0.00 0.00 0.00 85 1012.7
20260906054856 77 23 3.0 3.0 0.00 0.00 0.00 87 1012.6
20260906054351 77 183 0.0 0.0 0.00 0.00 0.00 86 1012.5
20260906053847 78 183 0.0 0.0 0.00 0.00 0.00 86 1012.5
20260906053343 78 183 0.0 0.0 0.00 0.00 0.00 85 1012.8
20260906052838 78 183 0.0 0.0 0.00 0.00 0.00 84 1012.9
20260906052335 78 183 0.0 0.0 0.00 0.00 0.00 83 1012.7
20260906051832 79 183 0.0 0.0 0.00 0.00 0.00 83 1012.7
20260906051331 79 183 0.0 0.0 0.00 0.00 0.00 82 1012.9
20260906050826 80 183 0.0 0.0 0.00 0.00 0.00 81 1012.7
20260906050321 80 187 0.0 1.0 0.00 0.00 0.00 80 1012.6
20260906045819 80 197 1.0 1.0 0.00 0.09 0.09 80 1012.7
20260906045314 80 192 1.0 1.0 0.00 0.09 0.09 81 1012.8
20260906044810 80 170 2.0 2.0 0.00 0.09 0.09 82 1012.7
20260906044305 80 176 1.0 1.0 0.00 0.09 0.09 81 1012.5
20260906043801 79 177 2.0 2.0 0.00 0.09 0.09 82 1012.5
20260906043257 79 182 0.0 0.0 0.00 0.09 0.09 82 1012.3
20260906042756 79 182 0.0 0.0 0.00 0.09 0.09 82 1012.4
20260906042255 80 182 0.0 0.0 0.00 0.09 0.09 80 1012.2
20260906041751 80 182 0.0 0.0 0.00 0.09 0.09 79 1012.2
20260906041246 80 181 0.0 0.0 0.00 0.09 0.09 80 1012.2
20260906040742 80 182 0.0 0.0 0.00 0.09 0.09 81 1012.1
20260906040237 80 181 0.0 0.0 0.00 0.09 0.09 82 1012.0
20260906035732 80 181 0.0 0.0 0.00 0.09 0.09 81 1012.2
20260906035228 80 181 0.0 0.0 0.00 0.09 0.09 80 1012.1
20260906034727 80 181 0.0 0.0 0.00 0.09 0.09 79 1012.0
20260906034223 80 181 0.0 0.0 0.00 0.09 0.09 79 1012.2
20260906033718 80 181 0.0 0.0 0.00 0.09 0.09 80 1012.1
20260906033218 80 181 0.0 0.0 0.00 0.09 0.09 79 1012.1
20260906032715 81 181 0.0 0.0 0.00 0.09 0.09 80 1011.9
20260906032215 81 182 0.0 0.0 0.00 0.09 0.09 80 1011.9
20260906031710 81 182 0.0 0.0 0.00 0.09 0.09 79 1012.0
20260906031205 82 182 0.0 0.0 0.00 0.09 0.09 78 1012.0
20260906030705 82 182 0.0 0.0 0.00 0.09 0.09 77 1012.1
20260906030201 82 182 0.0 0.0 0.00 0.09 0.09 77 1011.8
20260906025700 82 182 0.0 0.0 0.00 0.09 0.09 75 1011.9
20260906025159 82 182 0.0 0.0 0.00 0.09 0.09 76 1011.9
20260906024654 82 182 0.0 0.0 0.00 0.09 0.09 76 1011.7
20260906024153 82 182 0.0 0.0 0.00 0.09 0.09 76 1011.5
20260906023649 82 182 0.0 0.0 0.00 0.09 0.09 76 1011.4
20260906023149 82 182 0.0 0.0 0.00 0.09 0.09 77 1011.6
20260906022644 83 182 0.0 0.0 0.00 0.09 0.09 77 1011.4
20260906022140 83 182 0.0 0.0 0.00 0.09 0.09 76 1011.1
20260906021636 83 182 0.0 0.0 0.00 0.09 0.09 77 1010.9
20260906021134 83 182 0.0 0.0 0.00 0.09 0.09 76 1011.2
20260906020634 83 182 0.0 0.0 0.00 0.09 0.09 78 1011.0
20260906020129 83 181 0.0 0.0 0.00 0.09 0.09 78 1011.0
20260906015624 83 182 0.0 0.0 0.00 0.09 0.09 77 1010.9
20260906015122 84 181 0.0 0.0 0.00 0.09 0.09 77 1010.8
20260906014623 84 182 0.0 0.0 0.00 0.09 0.09 76 1011.0
20260906014119 85 181 0.0 0.0 0.00 0.09 0.09 75 1011.0
20260906013614 86 182 0.0 0.0 0.00 0.09 0.09 72 1010.8
20260906013109 85 179 1.0 1.0 0.00 0.09 0.09 71 1011.1
20260906012605 85 196 0.0 1.0 0.00 0.09 0.09 73 1011.1
20260906012105 86 179 1.0 1.0 0.00 0.09 0.09 72 1011.1
20260906011601 86 203 0.0 0.0 0.00 0.09 0.09 72 1011.0
20260906011101 85 203 0.0 0.0 0.00 0.09 0.09 71 1010.9
20260906010556 85 203 0.0 0.0 0.00 0.09 0.09 73 1010.7
20260906010052 85 203 0.0 0.0 0.00 0.09 0.09 71 1010.6
20260906005551 85 203 0.0 0.0 0.00 0.09 0.09 71 1010.7
20260906005051 85 203 0.0 0.0 0.00 0.09 0.09 71 1010.7
20260906004550 85 203 0.0 0.0 0.00 0.09 0.09 72 1010.6
20260906004045 86 203 0.0 0.0 0.00 0.09 0.09 73 1010.6
20260906003540 86 203 0.0 0.0 0.00 0.09 0.09 71 1010.5
20260906003037 85 203 0.0 1.0 0.00 0.09 0.09 71 1010.4
20260906002537 85 203 0.0 0.0 0.00 0.09 0.09 73 1010.5
20260906002031 85 203 0.0 0.0 0.00 0.09 0.09 74 1010.5
20260906001527 85 203 0.0 0.0 0.00 0.09 0.09 74 1010.7
20260906001021 85 203 0.0 0.0 0.00 0.09 0.09 74 1010.5
20260906000517 85 203 0.0 0.0 0.00 0.09 0.09 71 1010.6
20260906000012 86 203 0.0 0.0 0.00 0.09 0.09 73 1010.7
20260905235511 86 203 0.0 0.0 0.00 0.09 0.09 70 1010.9
20260905235007 86 203 0.0 0.0 0.00 0.09 0.09 70 1010.7
20260905234503 86 203 0.0 0.0 0.00 0.09 0.09 70 1010.8
20260905234002 86 203 0.0 0.0 0.00 0.09 0.09 70 1010.9
20260905233458 87 203 0.0 0.0 0.00 0.09 0.09 70 1011.0
20260905232956 87 203 0.0 0.0 0.00 0.09 0.09 68 1010.7
20260905232453 86 203 0.0 0.0 0.00 0.09 0.09 66 1010.7
20260905231948 86 203 0.0 0.0 0.00 0.09 0.09 70 1010.6
20260905231444 86 203 0.0 0.0 0.00 0.09 0.09 72 1010.6
20260905230940 86 203 0.0 0.0 0.00 0.09 0.09 72 1010.5
20260905230438 86 200 0.0 0.0 0.00 0.09 0.09 74 1010.5
20260905225937 87 200 0.0 0.0 0.00 0.09 0.09 72 1010.4
20260905225432 87 200 0.0 0.0 0.00 0.09 0.09 74 1010.5
20260905224927 86 200 0.0 0.0 0.00 0.09 0.09 77 1010.4
20260905224423 85 200 0.0 0.0 0.00 0.09 0.09 81 1010.3
20260905223922 84 200 0.0 0.0 0.00 0.09 0.09 83 1010.4
20260905223420 83 200 0.0 0.0 0.00 0.09 0.09 83 1010.3
20260905222921 82 200 0.0 0.0 0.00 0.09 0.09 84 1010.2
20260905222420 82 200 0.0 0.0 0.00 0.09 0.09 86 1010.2
20260905221916 82 200 0.0 0.0 0.00 0.09 0.09 86 1010.2
20260905221412 82 200 0.0 1.0 0.00 0.09 0.09 87 1010.4
20260905220908 83 200 0.0 0.0 0.00 0.09 0.09 85 1010.4
20260905220404 82 200 0.0 1.0 0.00 0.09 0.09 81 1010.2
20260905215903 84 200 0.0 1.0 0.31 0.09 0.09 78 1010.3
20260905215359 86 245 1.0 2.0 0.54 0.09 0.09 71 1010.4
20260905214855 90 330 5.0 6.0 0.28 0.05 0.05 63 1010.6
20260905214350 95 304 2.0 4.0 0.00 0.00 0.00 55 1010.3
20260905213845 99 289 0.0 0.0 0.00 0.00 0.00 42 1010.0
20260905213342 99 331 2.0 2.0 0.00 0.00 0.00 39 1010.2
20260905212841 99 307 1.0 1.0 0.00 0.00 0.00 41 1010.3
20260905212336 99 358 4.0 4.0 0.00 0.00 0.00 40 1009.9
20260905211836 100 255 0.0 0.0 0.00 0.00 0.00 41 1010.0
20260905211331 100 348 1.0 1.0 0.00 0.00 0.00 41 1010.1
20260905210828 100 255 0.0 1.0 0.00 0.00 0.00 40 1010.0
20260905210328 100 232 1.0 2.0 0.00 0.00 0.00 40 1010.2
20260905205827 100 252 2.0 2.0 0.00 0.00 0.00 39 1010.3
20260905205327 100 213 2.0 3.0 0.00 0.00 0.00 39 1010.4
20260905204826 100 207 1.0 1.0 0.00 0.00 0.00 42 1010.6
20260905204323 100 321 0.0 1.0 0.00 0.00 0.00 40 1010.5
20260905203821 100 245 3.0 4.0 0.00 0.00 0.00 40 1010.5
20260905203317 100 324 2.0 3.0 0.00 0.00 0.00 39 1010.7
20260905202813 100 285 3.0 4.0 0.00 0.00 0.00 41 1010.8
20260905202307 99 336 2.0 3.0 0.00 0.00 0.00 42 1010.7
20260905201803 99 316 0.0 0.0 0.00 0.00 0.00 43 1010.7
20260905201258 100 238 0.0 0.0 0.00 0.00 0.00 42 1010.8
20260905200753 100 212 0.0 0.0 0.00 0.00 0.00 40 1011.0
20260905200249 100 306 3.0 4.0 0.00 0.00 0.00 40 1011.0
20260905195746 100 9 3.0 4.0 0.00 0.00 0.00 40 1011.1
20260905195242 100 333 0.0 0.0 0.00 0.00 0.00 41 1011.2
20260905194737 100 337 0.0 0.0 0.00 0.00 0.00 41 1011.0
20260905194236 101 265 0.0 1.0 0.00 0.00 0.00 40 1011.2
20260905193736 100 326 2.0 2.0 0.00 0.00 0.00 40 1011.4
20260905193232 99 230 1.0 1.0 0.00 0.00 0.00 43 1011.5
20260905192727 98 325 2.0 2.0 0.00 0.00 0.00 44 1011.6
20260905192223 99 307 3.0 4.0 0.00 0.00 0.00 43 1011.7
20260905191722 100 294 0.0 1.0 0.00 0.00 0.00 42 1011.8
20260905191220 100 245 0.0 0.0 0.00 0.00 0.00 44 1011.7
20260905190719 100 236 1.0 1.0 0.00 0.00 0.00 45 1011.9
20260905190218 99 305 2.0 2.0 0.00 0.00 0.00 43 1011.7
20260905185718 99 321 3.0 3.0 0.00 0.00 0.00 44 1011.9
20260905185212 99 308 2.0 2.0 0.00 0.00 0.00 44 1012.0
20260905184707 98 48 1.0 2.0 0.00 0.00 0.00 47 1012.3
20260905184206 100 250 2.0 2.0 0.00 0.00 0.00 46 1012.1
20260905183706 101 234 1.0 1.0 0.00 0.00 0.00 44 1012.2
20260905183201 100 269 1.0 1.0 0.00 0.00 0.00 45 1012.2
20260905182700 100 216 0.0 0.0 0.00 0.00 0.00 45 1012.3
20260905182200 100 287 2.0 2.0 0.00 0.00 0.00 45 1012.4
20260905181656 100 201 1.0 1.0 0.00 0.00 0.00 44 1012.4
20260905181154 99 282 1.0 1.0 0.00 0.00 0.00 46 1012.4
20260905180649 98 240 1.0 1.0 0.00 0.00 0.00 47 1012.6
20260905180145 99 210 1.0 2.0 0.00 0.00 0.00 47 1012.8
20260905175643 99 237 0.0 0.0 0.00 0.00 0.00 47 1012.9
20260905175139 98 281 1.0 2.0 0.00 0.00 0.00 48 1012.9
20260905174635 98 257 1.0 2.0 0.00 0.00 0.00 48 1012.7
20260905174130 99 226 1.0 1.0 0.00 0.00 0.00 50 1012.8
20260905173626 98 242 0.0 1.0 0.00 0.00 0.00 47 1013.0
20260905173122 98 350 2.0 2.0 0.00 0.00 0.00 49 1012.9
20260905172620 98 273 1.0 2.0 0.00 0.00 0.00 49 1013.1
20260905172115 98 193 1.0 2.0 0.00 0.00 0.00 51 1013.3
20260905171612 97 187 1.0 2.0 0.00 0.00 0.00 50 1013.2
20260905171108 98 356 1.0 2.0 0.00 0.00 0.00 50 1013.1
20260905170604 98 132 1.0 1.0 0.00 0.00 0.00 49 1013.3
20260905170059 97 202 0.0 1.0 0.00 0.00 0.00 52 1013.3
20260905165554 97 355 0.0 0.0 0.00 0.00 0.00 51 1013.5
20260905165049 97 297 2.0 3.0 0.00 0.00 0.00 52 1013.4
20260905164544 97 216 1.0 1.0 0.00 0.00 0.00 53 1013.4
20260905164038 97 211 0.0 0.0 0.00 0.00 0.00 52 1013.7
20260905163534 97 203 1.0 1.0 0.00 0.00 0.00 52 1013.7
20260905163030 96 190 0.0 0.0 0.00 0.00 0.00 53 1013.9
20260905162526 96 240 1.0 2.0 0.00 0.00 0.00 54 1014.1
20260905162021 96 319 2.0 2.0 0.00 0.00 0.00 55 1014.2
20260905161520 96 338 2.0 2.0 0.00 0.00 0.00 53 1014.0
20260905161018 96 322 3.0 4.0 0.00 0.00 0.00 53 1014.3
20260905160517 96 321 0.0 2.0 0.00 0.00 0.00 55 1014.2
20260905160012 96 224 1.0 1.0 0.00 0.00 0.00 56 1014.1
20260905155511 95 227 0.0 1.0 0.00 0.00 0.00 56 1014.1
20260905155009 95 230 0.0 0.0 0.00 0.00 0.00 57 1013.9
20260905154505 95 321 0.0 0.0 0.00 0.00 0.00 56 1014.0
20260905154000 95 249 0.0 0.0 0.00 0.00 0.00 57 1014.1
20260905153457 95 157 0.0 0.0 0.00 0.00 0.00 59 1014.1
20260905152956 94 230 0.0 0.0 0.00 0.00 0.00 57 1014.1
20260905152456 93 231 0.0 0.0 0.00 0.00 0.00 59 1014.2
20260905151957 94 194 0.0 0.0 0.00 0.00 0.00 62 1014.1
20260905151452 94 202 0.0 0.0 0.00 0.00 0.00 59 1014.2
20260905150947 94 183 0.0 0.0 0.00 0.00 0.00 59 1014.1
20260905150442 93 182 1.0 1.0 0.00 0.00 0.00 59 1014.1
20260905145938 93 182 1.0 1.0 0.00 0.00 0.00 60 1014.1
20260905145433 93 185 1.0 1.0 0.00 0.00 0.00 63 1014.2
20260905144932 92 189 1.0 1.0 0.00 0.00 0.00 62 1014.2
20260905144429 91 168 1.0 2.0 0.00 0.00 0.00 63 1014.1
20260905143927 90 159 0.0 1.0 0.00 0.00 0.00 65 1014.0
20260905143427 90 188 2.0 2.0 0.00 0.00 0.00 68 1014.2
20260905142926 90 182 0.0 1.0 0.00 0.00 0.00 67 1014.3
20260905142425 90 165 0.0 1.0 0.00 0.00 0.00 64 1014.1
20260905141921 90 183 1.0 1.0 0.00 0.00 0.00 67 1014.1
20260905141416 89 179 0.0 0.0 0.00 0.00 0.00 69 1014.4
20260905140912 89 169 1.0 1.0 0.00 0.00 0.00 69 1014.3
20260905140407 89 165 0.0 1.0 0.00 0.00 0.00 69 1014.5
20260905135906 90 173 1.0 1.0 0.00 0.00 0.00 66 1014.4
20260905135402 90 83 0.0 1.0 0.00 0.00 0.00 65 1014.4
20260905134857 88 83 0.0 1.0 0.00 0.00 0.00 66 1014.4
20260905134355 87 123 0.0 0.0 0.00 0.00 0.00 68 1014.3
20260905133850 87 171 0.0 0.0 0.00 0.00 0.00 69 1014.3
20260905133346 87 170 0.0 0.0 0.00 0.00 0.00 70 1014.3
20260905132845 86 170 0.0 1.0 0.00 0.00 0.00 70 1014.4
20260905132340 85 170 0.0 0.0 0.00 0.00 0.00 73 1014.4
20260905131835 84 170 0.0 1.0 0.00 0.00 0.00 78 1014.4
20260905131330 83 170 0.0 0.0 0.00 0.00 0.00 79 1014.5
20260905130826 83 170 0.0 0.0 0.00 0.00 0.00 81 1014.5
20260905130324 83 170 0.0 1.0 0.00 0.00 0.00 82 1014.5
20260905125820 82 238 1.0 1.0 0.00 0.00 0.00 82 1014.5
20260905125315 82 170 0.0 0.0 0.00 0.00 0.00 84 1014.4
20260905124811 81 232 0.0 0.0 0.00 0.00 0.00 84 1014.5
20260905124307 81 232 1.0 1.0 0.00 0.00 0.00 85 1014.4
20260905123801 80 175 1.0 1.0 0.00 0.00 0.00 86 1014.4
20260905123259 80 175 1.0 1.0 0.00 0.00 0.00 86 1014.4
20260905122758 79 170 1.0 1.0 0.00 0.00 0.00 86 1014.4
20260905122257 78 185 0.0 1.0 0.00 0.00 0.00 89 1014.3
20260905121753 77 186 0.0 0.0 0.00 0.00 0.00 91 1014.4
20260905121250 77 186 0.0 0.0 0.00 0.00 0.00 92 1014.3
20260905120748 77 186 0.0 0.0 0.00 0.00 0.00 93 1014.2
20260905120247 76 186 0.0 0.0 0.00 0.00 0.00 93 1014.4
20260905115743 76 186 0.0 0.0 0.00 0.00 0.00 94 1014.1
20260905115242 76 186 0.0 0.0 0.00 0.00 0.00 94 1014.2
20260905114742 76 186 0.0 0.0 0.00 0.00 0.00 94 1014.2
20260905114241 76 186 0.0 0.0 0.00 0.00 0.00 94 1014.1
20260905113740 76 186 0.0 0.0 0.00 0.00 0.00 94 1013.8
20260905113236 76 186 0.0 0.0 0.00 0.00 0.00 94 1013.9
20260905112731 76 186 0.0 0.0 0.00 0.00 0.00 94 1013.6
20260905112226 76 186 0.0 0.0 0.00 0.00 0.00 94 1013.9
20260905111721 76 186 0.0 0.0 0.00 0.00 0.00 94 1013.7
20260905111221 76 186 0.0 0.0 0.00 0.00 0.00 94 1013.6
20260905110720 76 186 0.0 0.0 0.00 0.00 0.00 94 1013.6
20260905110214 76 186 0.0 0.0 0.00 0.00 0.00 93 1013.5
20260905105710 76 186 0.0 0.0 0.00 0.00 0.00 93 1013.5
20260905105208 76 186 0.0 0.0 0.00 0.00 0.00 93 1013.6
20260905104704 76 186 0.0 0.0 0.00 0.00 0.00 93 1013.5
20260905104200 77 186 0.0 0.0 0.00 0.00 0.00 93 1013.4
20260905103655 77 186 0.0 0.0 0.00 0.00 0.00 93 1013.4
20260905103150 77 186 0.0 0.0 0.00 0.00 0.00 93 1013.4